This is the latest recevied weather packets stored in our database for station/object W6JCZ-13. If no packets are shown the sender has not sent any weather packets the latest 10 day(s).
| Time | Temp. | Humidity | Pressure | Rain* | Wind** | Luminosity | Snow |
|---|---|---|---|---|---|---|---|
| 1778187317 | 26.11° C | 60% | 1015.3 hPa | 0 mm | - | - | - |
| 1778186717 | 26.11° C | 63% | 1015.5 hPa | 0 mm | - | - | - |
| 1778186117 | 26.11° C | 64% | 1015.6 hPa | 0 mm | - | - | - |
| 1778185517 | 25.56° C | 62% | 1015.6 hPa | 0 mm | - | - | - |
| 1778184917 | 25.56° C | 63% | 1015.8 hPa | 0 mm | - | - | - |
| 1778184317 | 25.56° C | 61% | 1015.8 hPa | 0 mm | - | - | - |
| 1778183717 | 25° C | 63% | 1015.9 hPa | 0 mm | - | - | - |
| 1778183118 | 24.44° C | 66% | 1016 hPa | 0 mm | - | - | - |
| 1778182517 | 24.44° C | 62% | 1016.1 hPa | 0 mm | - | - | - |
| 1778181917 | 24.44° C | 62% | 1016.2 hPa | 0 mm | - | - | - |
| 1778181317 | 24.44° C | 63% | 1016.3 hPa | 0 mm | - | - | - |
| 1778180717 | 23.89° C | 65% | 1016.4 hPa | 0 mm | - | - | - |
| 1778180117 | 23.33° C | 66% | 1016.7 hPa | 0 mm | - | - | - |
| 1778179517 | 22.78° C | 67% | 1016.8 hPa | 0 mm | - | - | - |
| 1778178917 | 22.22° C | 67% | 1016.9 hPa | 0 mm | - | - | - |
| 1778178317 | 21.67° C | 68% | 1017.1 hPa | 0 mm | - | - | - |
| 1778177717 | 21.11° C | 69% | 1017.1 hPa | 0 mm | - | - | - |
| 1778177117 | 21.11° C | 70% | 1017 hPa | 0 mm | - | - | - |
| 1778176517 | 20° C | 73% | 1017 hPa | 0 mm | - | - | - |
| 1778175917 | 19.44° C | 77% | 1017 hPa | 0 mm | - | - | - |
| 1778175317 | 18.89° C | 76% | 1017.1 hPa | 0 mm | - | - | - |
| 1778174717 | 18.89° C | 76% | 1017.1 hPa | 0 mm | - | - | - |
| 1778174117 | 18.33° C | 77% | 1017.2 hPa | 0 mm | - | - | - |
| 1778173517 | 17.78° C | 76% | 1017.2 hPa | 0 mm | - | - | - |
| 1778172917 | 17.78° C | 78% | 1017.2 hPa | 0 mm | - | - | - |
* Rain latest hour (hover to see other rain measurements)
** Current wind speed in m/s (hover to see current wind gust speed)